Conditions actuelles
Plutôt dégagé




Pression
29.88 (inHG) - 1011.92 (mb)
Visibilité

10.0 (km) - 6.2 (miles)
   Température
24  °C
75°F
18  °C
Point de rosée
69  %
 Humidité
   Vitesse du vent
8  km/h
4  kts
5  mph
2.2  m/s
   Direction du vent
 90°
De L'est
   Données d'aéroport
LFBU
Location Angoulême-Brie-Champniers Airport 6 km (3.73 mi)
Metar :LFBU 100130Z AUTO 09004KT CAVOK 24/18 Q1012
10-08-2020 03:30:00
   Information brute de métar
Le METAR brut est le format le plus répandu dans le monde pour la transmission de données météorologiques d'observation. Il est hautement standardisé par l'Organisation de l'aviation civile internationale (OACI), ce qui lui permet d'être compris dans la plupart des pays.
   API Info
Données fournies par
https://www.checkwx.com/weather/LFBU
   © Info
Les scripts CSS / SVG / PHP ont été développés par weather34.com pour une utilisation dans le modèle weather34 © 2015-2020

Guide Info fourni par Metar-Wikipedia